Temp
14 14 15 14 15 15 15 15 15 16 15 15 16 16 15 15 15 16 16 16 17 18 18 18 18 18 18 18 19 19 19 19 19 19 19 19 19 19 19 19 19 19 19 20 20 20 19 19 19 19 19 19 19 19 19 19 19 19 19 19 19 19 19 19 18 18 18 18 19 19 19 18 18 18
14 14 14 15 15 15 15 15 15 15 15 15 16 16 15 15 15 15 16 16 17 17 18 18 18 18 18 18 18 18 18 19 18 18 19 19 19 19 19 19 19 19 19 19 20 20 20 20 20 19 19 19 19 19 19 19 19 19 19 19 19 19 19 19 19 18 18 18 18 19 19 18 18 18
13 13 14 14 14 14 14 15 15 15 15 15 15 15 15 15 15 15 15 16 17 17 17 18 18 18 17 17 17 18 18 18 18 18 19 19 19 19 19 19 19 19 19 19 19 20 20 20 20 19 19 19 19 19 19 19 19 19 19 19 19 19 19 19 19 19 18 18 18 18 18 18 18 18
13 13 13 14 14 14 14 14 15 15 15 15 15 15 15 15 15 15 15 16 17 17 17 17 18 17 17 17 17 17 18 18 18 18 18 19 19 19 19 19 19 19 19 19 19 20 20 20 20 19 19 19 19 19 19 19 19 19 19 19 19 19 19 19 19 19 18 18 18 18 18 18 18 18
13 13 13 13 13 14 14 14 14 14 15 15 15 15 15 15 15 15 16 16 16 17 17 17 17 17 17 17 17 17 18 18 18 18 18 19 19 19 19 19 19 19 19 19 19 19 19 19 19 19 19 19 19 19 19 19 18 18 18 18 18 18 18 18 18 19 18 18 18 18 18 18 18 18
13 13 13 13 13 13 13 14 14 14 14 15 15 15 15 15 15 15 16 16 16 17 17 16 17 17 17 17 17 17 17 18 18 18 18 18 18 18 18 19 19 19 18 19 19 19 19 19 19 19 19 19 19 19 18 18 18 18 18 18 18 18 18 18 18 18 18 18 18 18 18 18 18 18
13 13 13 13 13 13 13 13 14 14 14 14 15 15 15 15 15 15 16 16 16 16 16 16 16 17 17 17 17 17 17 17 18 18 18 18 18 18 18 19 18 18 18 18 19 19 19 19 19 19 19 19 19 19 18 18 18 18 18 18 18 18 18 18 18 18 18 18 18 18 18 18 18 18
12 12 12 12 12 13 13 13 13 14 14 14 14 15 15 15 15 15 15 15 16 16 16 16 16 17 17 17 17 17 17 17 17 17 18 18 18 18 19 19 18 18 18 18 18 19 19 19 19 19 19 19 19 19 19 19 19 19 19 19 18 18 18 18 18 18 18 18 18 18 18 18 18 18
11 11 11 11 11 12 13 13 13 13 13 14 14 14 15 15 15 15 15 15 16 16 16 16 16 16 17 17 17 17 17 17 17 17 17 17 18 18 19 19 18 19 18 18 18 19 19 19 19 19 19 19 19 19 19 19 19 19 19 19 19 19 19 18 18 18 18 18 18 18 18 18 18 18
10 11 11 10 10 11 12 13 13 13 13 14 14 14 15 15 15 15 15 16 16 16 16 16 16 16 16 16 17 17 17 17 17 17 17 17 17 18 18 18 18 18 18 18 18 18 19 19 19 19 19 19 19 19 19 19 19 19 19 19 19 19 19 19 18 18 18 18 18 18 18 18 18 18
10 10 10 10 10 10 11 12 13 13 13 14 14 14 14 14 14 14 15 15 16 15 15 16 16 16 16 16 17 17 17 17 17 17 17 17 17 17 17 18 18 18 18 19 19 18 18 19 19 19 19 19 19 19 19 19 19 19 19 19 19 19 19 19 18 18 18 18 18 18 18 18 18 18
10 10 10 10 10 10 11 11 12 13 13 13 14 14 14 14 15 14 14 15 15 15 15 15 15 16 16 16 16 17 16 17 17 17 16 17 17 17 18 18 18 18 18 19 19 19 18 18 19 19 19 19 19 19 19 19 19 20 20 20 19 19 19 19 19 18 18 18 18 18 18 18 18 18
11 11 11 10 10 10 11 11 12 13 13 13 13 13 13 14 14 14 15 15 15 15 16 15 15 16 16 16 16 16 16 17 18 17 16 17 17 17 18 18 18 18 18 18 19 19 18 18 18 19 19 19 19 19 19 19 19 20 20 20 20 19 19 19 19 19 18 18 18 18 18 18 18 18
11 11 10 10 10 10 11 11 12 12 13 13 13 13 13 13 14 14 15 15 15 15 15 15 15 15 16 16 16 16 16 17 17 17 16 17 17 17 17 17 17 18 18 18 18 19 18 18 18 19 19 19 19 19 19 19 20 20 20 20 20 19 19 19 19 19 19 18 18 18 18 18 18 18
11 11 11 10 10 10 11 11 12 12 12 12 13 13 13 13 13 14 14 14 14 15 15 15 15 15 16 16 16 16 16 17 17 17 16 17 17 17 17 17 18 18 18 18 18 18 18 18 18 18 19 19 19 19 19 20 20 20 20 20 19 19 19 19 19 19 18 18 18 18 18 18 18 18
11 11 11 11 11 10 10 10 11 12 12 12 13 13 13 13 13 13 14 14 14 14 15 15 15 15 16 16 16 16 16 16 17 17 16 16 17 17 17 17 18 18 18 18 18 18 18 18 18 18 19 19 19 20 20 20 20 20 20 20 19 19 19 19 19 19 18 18 18 18 18 18 18 18
11 11 11 11 11 11 10 10 10 11 11 12 13 13 13 13 13 13 13 14 14 14 15 15 15 15 16 16 16 16 16 16 16 16 16 16 17 17 17 17 17 17 18 18 18 18 18 18 18 19 19 19 19 20 20 20 20 20 20 20 19 19 19 19 19 18 18 18 18 18 18 18 18 18
10 10 10 10 11 11 11 10 10 10 11 11 12 13 13 14 14 14 13 13 14 14 14 14 14 15 15 15 16 16 16 16 16 16 16 16 17 17 17 17 17 17 17 18 18 18 18 18 18 18 18 19 19 20 20 20 20 20 20 20 19 19 19 19 18 18 18 18 18 18 18 18 18 18
11 11 11 11 11 11 11 10 10 10 10 11 11 12 13 14 14 14 14 14 14 14 14 14 14 15 15 15 15 15 16 16 15 16 16 16 16 17 17 17 16 16 17 18 18 18 18 18 18 18 18 19 19 20 20 20 20 20 20 19 19 19 19 18 18 18 17 18 18 18 18 18 18 18
11 11 11 12 12 11 11 10 10 10 10 10 11 11 12 13 13 14 15 14 14 14 15 15 15 15 14 14 15 15 15 15 15 15 16 16 16 16 16 16 16 16 17 17 17 17 18 18 18 18 18 18 18 19 19 19 20 20 19 19 18 18 18 18 18 17 17 17 18 18 18 18 18 18
11 11 11 11 12 12 11 10 10 10 10 10 10 11 12 12 12 14 15 14 14 14 14 15 15 15 14 14 14 14 14 14 15 15 15 15 16 16 16 16 16 16 17 17 17 17 18 18 18 18 18 18 18 18 17 18 19 19 18 18 18 18 18 18 17 17 17 17 17 17 17 17 17 17
11 11 11 11 11 11 11 11 10 10 10 10 10 10 11 10 11 13 13 14 14 14 14 14 15 14 14 14 14 14 14 14 14 14 15 15 15 15 16 16 16 16 17 17 17 17 18 18 18 18 18 17 18 18 17 17 18 18 18 18 17 17 17 17 17 17 17 17 17 17 17 17 17 17
12 12 12 11 11 11 11 11 11 10 10 9 9 10 10 10 10 12 12 13 14 14 14 14 14 14 14 14 14 13 13 13 14 15 15 15 15 15 15 16 16 16 17 17 17 17 18 18 18 18 18 18 17 18 17 17 17 18 17 17 17 17 17 17 16 16 16 16 17 17 17 17 17 17
12 12 12 12 11 11 11 11 11 11 10 9 10 10 10 9 10 11 12 13 13 14 14 14 14 14 14 14 14 13 13 13 14 15 15 15 15 15 16 15 15 16 17 18 17 17 18 18 18 18 18 18 18 17 17 17 17 17 17 17 17 17 16 16 16 16 16 16 16 16 17 17 17 17
12 12 12 12 11 11 11 11 11 11 10 10 10 10 10 10 10 12 13 13 13 14 14 14 14 14 14 14 14 14 14 14 14 14 15 15 15 15 15 15 15 16 17 18 17 18 18 18 18 18 17 18 18 17 16 17 17 17 17 17 17 16 16 16 16 16 16 16 16 16 16 16 16 16
12 12 12 12 11 11 11 11 11 11 11 10 10 10 10 10 10 12 14 14 14 14 14 14 14 14 14 14 14 14 14 14 14 14 15 15 15 15 15 15 15 16 17 17 17 18 18 18 18 18 17 17 18 17 16 16 16 17 17 17 16 16 16 15 15 15 15 16 16 16 16 16 16 16
12 12 12 12 11 11 11 11 11 11 11 11 11 10 10 10 10 11 13 14 14 14 14 14 14 14 15 14 14 14 14 14 14 14 14 14 15 15 15 15 15 16 16 17 17 17 17 17 18 18 17 17 17 17 16 16 16 17 17 17 16 15 15 15 15 15 15 15 16 16 16 16 16 16
12 12 12 12 12 11 11 11 11 11 11 11 11 11 10 10 10 11 12 13 14 14 14 14 14 14 15 15 15 14 14 14 14 14 14 14 15 15 15 14 15 15 16 16 16 16 17 17 18 18 17 17 17 17 16 16 16 16 17 17 16 15 15 15 15 15 16 16 16 16 16 16 16 16
12 12 12 12 12 11 12 11 11 11 11 11 11 11 10 10 10 10 11 11 12 13 13 13 14 14 14 14 14 14 14 14 14 15 14 14 15 15 14 14 14 15 16 16 16 16 16 17 17 17 17 17 17 17 16 16 16 16 16 16 15 15 15 15 14 15 16 15 15 16 16 16 16 16
12 12 12 12 12 12 12 12 11 11 11 11 11 11 11 10 10 10 10 10 11 11 12 12 12 13 14 14 14 14 14 14 14 14 14 14 14 14 14 14 15 15 15 15 15 16 16 16 17 17 17 17 17 17 17 16 16 16 16 15 15 15 15 15 14 15 15 15 15 15 15 16 16 16
12 12 12 12 11 12 12 12 11 11 11 11 11 11 11 11 11 10 10 10 10 10 11 11 11 12 13 13 14 14 14 14 14 14 14 14 14 14 14 15 15 15 15 15 15 15 16 16 16 16 16 16 16 16 16 16 16 16 15 15 15 15 15 15 14 15 15 15 15 15 15 16 16 16
12 12 11 11 11 12 12 12 11 11 11 11 10 10 11 11 11 11 11 11 10 10 11 11 11 12 12 12 12 13 13 13 13 14 14 14 14 14 14 14 14 15 15 15 15 15 15 15 15 16 16 16 16 16 16 16 16 16 15 15 15 15 15 15 15 15 15 15 15 15 16 16 16 15
12 11 11 11 12 12 12 12 12 11 11 11 11 11 11 11 11 11 11 11 11 11 11 11 11 11 12 11 11 12 12 12 12 13 13 13 14 14 14 14 14 14 15 15 15 15 15 15 15 15 16 16 15 15 15 15 16 15 15 15 15 15 15 14 14 15 15 15 15 15 15 15 15 15
11 11 11 11 12 12 11 12 12 11 11 11 11 11 11 11 10 10 10 10 11 12 12 11 11 11 11 11 11 11 11 11 12 12 13 13 13 14 14 14 13 14 14 14 14 14 14 15 15 15 15 15 15 15 15 15 15 15 15 15 15 15 15 14 14 15 16 15 14 14 15 15 16 15
11 11 11 11 11 11 11 11 11 11 11 11 11 11 11 11 11 11 10 10 11 11 12 12 12 12 11 11 11 11 11 11 11 11 11 12 12 12 13 13 13 13 13 14 14 14 14 14 15 15 15 15 14 14 14 15 15 15 15 15 15 15 14 14 15 15 15 15 15 15 15 15 15 16
11 11 11 11 11 11 11 11 11 11 11 11 11 11 11 11 11 11 10 10 11 11 11 11 11 12 12 11 11 11 11 11 11 11 11 11 11 11 11 11 11 11 12 12 13 13 13 13 14 14 14 14 14 14 14 14 14 14 14 15 15 14 15 15 15 15 15 15 15 15 15 15 15 15
11 11 10 10 10 10 10 10 10 10 10 10 10 10 11 11 11 11 10 10 11 11 11 10 11 11 11 11 12 11 11 11 11 11 11 11 11 11 11 11 11 11 11 11 12 12 12 12 13 13 13 13 13 13 13 13 14 14 14 14 14 14 14 14 14 14 14 14 15 15 15 14 14 14
10 10 10 9 9 9 9 9 9 9 10 10 10 10 10 10 10 11 11 11 11 11 11 10 10 11 11 11 11 12 12 12 12 11 11 11 11 11 11 11 11 11 11 11 11 11 12 12 12 12 12 12 12 12 12 13 13 13 13 13 14 14 14 14 14 14 14 14 14 14 14 14 14 14
9 9 9 9 9 8 8 8 8 9 9 9 10 10 10 10 10 11 11 11 11 11 10 10 10 10 11 11 11 11 11 12 12 12 12 11 11 11 11 11 11 11 11 11 11 11 11 12 12 11 12 12 12 12 12 12 12 12 13 13 13 13 13 13 13 14 14 14 14 14 14 14 14 14
8 8 8 8 8 8 8 8 8 8 9 9 9 9 9 9 10 10 10 11 11 10 10 10 10 10 10 10 10 10 11 11 11 11 11 11 11 11 11 11 11 11 11 11 11 11 11 11 11 11 11 11 11 11 12 12 12 12 12 12 12 12 13 13 13 13 13 14 14 14 14 14 14 14
7 7 7 7 7 8 8 8 8 8 8 9 9 9 9 9 9 9 9 10 10 10 10 10 10 10 10 10 10 10 10 11 11 11 11 11 11 11 11 11 11 11 11 11 11 11 11 11 11 11 11 11 11 11 11 12 12 12 12 12 12 12 12 13 13 13 13 13 13 13 13 13 13 14
7 7 7 7 7 7 7 7 8 8 8 8 8 9 9 9 9 9 9 9 10 10 10 10 10 10 10 10 10 10 10 11 11 11 11 11 11 11 11 11 11 11 11 11 11 11 11 11 11 11 11 11 11 11 11 11 11 11 11 12 12 12 12 12 13 13 13 13 13 13 13 13 13 14
6 6 6 7 7 7 7 8 8 8 8 8 8 8 8 8 9 9 9 9 9 9 9 9 9 9 9 9 9 10 10 11 11 11 11 11 11 11 11 11 11 11 11 11 11 11 11 11 11 11 11 11 11 11 11 11 11 11 11 11 12 12 12 12 12 12 13 13 13 13 13 13 13 13
6 6 6 6 6 6 7 7 7 7 7 7 7 8 8 8 8 8 8 9 9 9 9 9 9 9 9 9 9 9 10 10 10 10 10 10 10 11 11 11 11 11 11 11 11 11 11 11 11 11 11 11 11 11 11 11 11 11 11 11 12 12 12 12 12 12 13 13 13 13 13 13 13 13
6 6 6 6 6 6 6 6 6 6 7 7 7 7 7 7 7 8 8 8 8 9 9 9 9 9 9 9 9 9 9 9 10 10 10 10 10 10 11 11 11 11 11 11 11 11 11 11 11 11 11 11 11 11 11 11 11 11 11 12 12 12 12 12 12 12 12 12 12 12 12 12 12 12
Height
1515 1514 1513 1512 1510 1510 1510 1509 1509 1509 1509 1510 1510 1510 1510 1511 1510 1508 1507 1506 1507 1508 1509 1508 1510 1510 1510 1510 1511 1512 1513 1514 1516 1517 1518 1518 1519 1520 1521 1523 1524 1526 1527 1528 1529 1531 1532 1534 1535 1535 1536 1537 1537 1538 1538 1539 1540 1540 1541 1542 1543 1543 1544 1544 1545 1546 1546 1547 1548 1548 1549 1549 1549 1550
1513 1511 1510 1508 1506 1505 1505 1505 1504 1504 1504 1504 1505 1504 1505 1506 1506 1505 1504 1502 1501 1503 1504 1503 1504 1505 1505 1506 1507 1508 1509 1510 1512 1513 1514 1514 1516 1517 1517 1518 1520 1522 1523 1524 1526 1527 1529 1530 1531 1532 1533 1533 1534 1534 1534 1535 1536 1536 1537 1538 1539 1539 1540 1540 1541 1542 1542 1543 1544 1544 1545 1545 1546 1546
1510 1508 1506 1505 1503 1501 1500 1499 1499 1498 1498 1498 1498 1498 1499 1501 1501 1501 1501 1498 1496 1499 1500 1499 1501 1501 1500 1501 1503 1504 1505 1506 1508 1509 1510 1511 1512 1513 1513 1514 1517 1518 1519 1520 1521 1523 1525 1526 1527 1528 1529 1530 1530 1531 1531 1531 1532 1533 1533 1534 1535 1535 1536 1536 1537 1537 1538 1539 1540 1540 1541 1541 1542 1543
1506 1504 1502 1500 1498 1497 1495 1493 1493 1493 1492 1492 1492 1492 1493 1494 1495 1495 1495 1492 1490 1493 1495 1496 1498 1498 1497 1497 1499 1500 1502 1503 1504 1505 1506 1507 1507 1508 1509 1511 1513 1514 1515 1516 1517 1519 1520 1521 1523 1524 1525 1526 1527 1527 1528 1528 1528 1529 1529 1530 1531 1531 1532 1532 1533 1533 1534 1535 1535 1536 1537 1538 1538 1539
1502 1499 1497 1494 1493 1492 1490 1488 1488 1488 1487 1487 1487 1487 1487 1488 1489 1489 1489 1488 1485 1486 1490 1492 1494 1495 1495 1495 1495 1497 1499 1500 1501 1502 1502 1503 1504 1504 1506 1507 1509 1510 1511 1512 1513 1515 1516 1517 1519 1520 1522 1523 1524 1524 1525 1525 1525 1525 1526 1527 1527 1528 1528 1528 1529 1529 1530 1531 1532 1532 1533 1534 1534 1535
1499 1495 1492 1489 1487 1486 1485 1483 1483 1482 1481 1481 1481 1481 1481 1482 1484 1484 1483 1483 1482 1482 1484 1487 1489 1491 1492 1492 1493 1495 1496 1497 1497 1499 1500 1501 1501 1501 1501 1503 1505 1507 1508 1509 1510 1512 1513 1514 1515 1517 1518 1520 1521 1521 1522 1522 1522 1522 1522 1523 1523 1524 1524 1525 1525 1526 1526 1527 1528 1528 1529 1530 1530 1531
1495 1490 1487 1484 1482 1481 1479 1477 1476 1476 1476 1476 1476 1476 1477 1477 1478 1479 1478 1477 1478 1479 1481 1483 1485 1486 1488 1489 1490 1492 1493 1494 1494 1495 1497 1498 1498 1498 1498 1500 1501 1503 1504 1506 1507 1509 1510 1511 1512 1513 1515 1517 1518 1518 1519 1519 1519 1519 1519 1519 1520 1520 1521 1521 1521 1522 1522 1523 1524 1525 1525 1526 1527 1527
1490 1486 1482 1480 1477 1475 1473 1471 1471 1470 1470 1471 1471 1471 1471 1472 1473 1474 1472 1471 1474 1476 1477 1479 1480 1482 1484 1485 1487 1489 1490 1490 1490 1492 1493 1495 1495 1495 1496 1497 1498 1499 1501 1503 1504 1506 1507 1508 1509 1510 1512 1513 1515 1515 1516 1516 1516 1515 1516 1516 1516 1516 1517 1517 1518 1518 1519 1519 1520 1521 1521 1522 1523 1523
1486 1483 1479 1476 1473 1471 1468 1466 1465 1464 1464 1465 1466 1466 1466 1467 1468 1468 1467 1467 1469 1471 1473 1475 1476 1478 1480 1481 1483 1484 1485 1485 1486 1488 1489 1490 1492 1492 1492 1493 1495 1497 1499 1500 1502 1503 1504 1505 1506 1507 1508 1510 1511 1512 1513 1513 1512 1512 1512 1512 1512 1513 1513 1514 1514 1515 1515 1515 1516 1517 1517 1518 1518 1519
1484 1480 1476 1472 1469 1466 1464 1461 1460 1458 1458 1459 1459 1460 1461 1462 1463 1463 1462 1463 1464 1466 1468 1470 1472 1474 1476 1477 1478 1479 1480 1481 1482 1483 1484 1486 1487 1488 1488 1490 1491 1494 1495 1497 1499 1500 1501 1502 1503 1503 1505 1506 1508 1509 1509 1510 1509 1509 1508 1508 1509 1509 1510 1510 1510 1511 1511 1512 1512 1513 1513 1514 1514 1515
1482 1478 1474 1469 1465 1462 1460 1457 1454 1452 1452 1453 1454 1455 1456 1457 1458 1458 1458 1458 1460 1462 1463 1466 1468 1470 1472 1473 1473 1475 1476 1477 1478 1479 1480 1481 1483 1484 1485 1486 1488 1490 1492 1494 1496 1498 1499 1500 1500 1500 1501 1503 1504 1505 1506 1506 1506 1505 1505 1505 1505 1505 1506 1506 1507 1507 1508 1508 1508 1509 1509 1510 1510 1511
1480 1475 1471 1467 1463 1460 1456 1452 1449 1448 1447 1448 1449 1450 1451 1452 1452 1453 1455 1454 1455 1457 1459 1461 1463 1465 1467 1468 1469 1472 1473 1472 1473 1475 1476 1477 1479 1481 1482 1483 1485 1487 1489 1491 1493 1495 1496 1497 1497 1497 1498 1499 1501 1502 1502 1502 1502 1502 1502 1501 1501 1502 1502 1503 1503 1504 1504 1504 1505 1505 1505 1506 1506 1506
1478 1473 1469 1465 1461 1457 1453 1449 1446 1445 1444 1444 1444 1444 1445 1447 1447 1448 1450 1450 1451 1452 1454 1456 1458 1460 1462 1463 1464 1467 1468 1468 1469 1471 1472 1473 1475 1478 1479 1480 1481 1483 1485 1488 1489 1491 1492 1493 1493 1494 1495 1496 1497 1498 1498 1498 1498 1498 1498 1498 1498 1498 1498 1499 1499 1500 1500 1501 1501 1501 1502 1502 1502 1503
1476 1471 1467 1463 1459 1455 1451 1447 1444 1442 1441 1441 1440 1439 1440 1441 1442 1442 1443 1444 1446 1447 1449 1451 1453 1455 1456 1458 1460 1462 1463 1464 1466 1467 1469 1470 1472 1474 1475 1476 1477 1479 1481 1483 1485 1486 1488 1489 1490 1491 1492 1492 1492 1494 1494 1494 1495 1495 1494 1494 1494 1494 1495 1495 1495 1496 1496 1497 1497 1497 1498 1498 1499 1499
1474 1470 1466 1462 1457 1453 1449 1445 1442 1440 1438 1437 1436 1435 1434 1435 1436 1436 1437 1439 1440 1442 1444 1446 1448 1449 1451 1453 1456 1458 1460 1461 1462 1463 1465 1466 1467 1469 1470 1471 1473 1474 1477 1479 1480 1482 1484 1486 1487 1487 1488 1488 1488 1489 1489 1490 1491 1491 1491 1490 1490 1490 1491 1491 1492 1492 1492 1493 1493 1494 1494 1495 1495 1496
1474 1470 1466 1461 1457 1452 1448 1445 1441 1437 1435 1433 1431 1430 1429 1428 1429 1431 1432 1434 1435 1437 1439 1440 1442 1443 1446 1449 1451 1454 1456 1457 1458 1460 1461 1461 1462 1464 1466 1467 1469 1471 1473 1475 1476 1478 1481 1483 1484 1484 1483 1483 1484 1485 1485 1486 1487 1487 1486 1486 1486 1486 1487 1487 1488 1488 1488 1489 1490 1490 1491 1492 1492 1493
1473 1469 1466 1461 1457 1453 1449 1445 1441 1437 1432 1429 1427 1425 1424 1423 1423 1425 1426 1428 1430 1432 1433 1434 1435 1438 1441 1443 1446 1449 1452 1454 1455 1456 1456 1456 1457 1459 1461 1463 1465 1467 1469 1471 1473 1476 1477 1478 1479 1479 1478 1479 1480 1481 1481 1482 1483 1482 1482 1482 1482 1482 1483 1483 1484 1484 1485 1486 1486 1487 1488 1489 1489 1490
1472 1468 1465 1461 1456 1452 1448 1445 1441 1436 1432 1427 1423 1421 1419 1418 1418 1419 1420 1421 1424 1426 1428 1428 1429 1432 1435 1438 1441 1444 1447 1449 1450 1451 1451 1451 1453 1455 1458 1460 1462 1464 1465 1467 1469 1472 1474 1474 1474 1474 1474 1475 1476 1477 1477 1478 1478 1478 1478 1478 1478 1479 1479 1480 1480 1481 1482 1483 1483 1484 1485 1486 1486 1487
1470 1467 1463 1459 1456 1452 1447 1444 1440 1435 1430 1425 1421 1417 1414 1412 1411 1411 1413 1414 1416 1418 1420 1422 1424 1426 1430 1433 1436 1439 1442 1443 1445 1446 1447 1448 1449 1452 1455 1457 1458 1460 1462 1464 1465 1466 1469 1470 1470 1470 1471 1472 1473 1473 1473 1473 1474 1474 1473 1474 1474 1475 1476 1476 1477 1478 1479 1480 1480 1481 1482 1483 1484 1485
1469 1465 1461 1458 1455 1451 1447 1442 1438 1434 1429 1424 1418 1414 1409 1406 1403 1403 1404 1407 1409 1411 1413 1416 1418 1421 1425 1428 1431 1434 1437 1438 1440 1442 1444 1445 1447 1449 1452 1453 1454 1456 1458 1460 1461 1462 1465 1467 1467 1468 1468 1469 1469 1470 1469 1468 1469 1469 1469 1470 1470 1471 1472 1473 1474 1475 1476 1477 1478 1478 1479 1480 1481 1482
1467 1464 1460 1456 1453 1450 1447 1442 1438 1433 1428 1422 1417 1412 1407 1401 1397 1395 1396 1399 1402 1404 1406 1410 1413 1416 1420 1423 1426 1429 1432 1434 1436 1439 1440 1441 1443 1445 1447 1449 1450 1452 1454 1456 1458 1459 1461 1462 1463 1464 1465 1465 1466 1466 1466 1464 1464 1465 1465 1466 1467 1468 1469 1470 1471 1472 1473 1474 1475 1476 1477 1478 1479 1480
1465 1462 1459 1456 1453 1449 1446 1443 1438 1433 1427 1421 1415 1410 1405 1398 1392 1389 1391 1393 1395 1398 1401 1404 1407 1411 1415 1418 1421 1424 1428 1430 1432 1434 1436 1437 1440 1441 1442 1444 1447 1449 1451 1452 1453 1454 1456 1457 1458 1459 1461 1462 1461 1462 1462 1461 1460 1461 1462 1463 1464 1465 1466 1467 1468 1469 1470 1471 1472 1473 1474 1475 1476 1477
1463 1460 1457 1455 1452 1449 1445 1442 1437 1432 1427 1420 1413 1409 1403 1396 1389 1385 1386 1388 1391 1393 1395 1398 1401 1405 1409 1413 1416 1419 1423 1425 1427 1430 1432 1434 1436 1437 1439 1441 1443 1445 1446 1447 1448 1449 1450 1452 1453 1454 1456 1458 1458 1458 1459 1458 1457 1458 1459 1459 1461 1462 1463 1464 1465 1466 1468 1469 1470 1471 1472 1473 1474 1475
1461 1458 1456 1453 1450 1447 1444 1440 1436 1431 1426 1420 1413 1407 1401 1393 1385 1380 1379 1383 1386 1388 1390 1393 1396 1399 1403 1407 1410 1413 1417 1420 1422 1425 1428 1430 1431 1433 1435 1437 1438 1439 1440 1442 1443 1444 1446 1448 1448 1449 1452 1455 1455 1455 1455 1454 1454 1455 1456 1457 1458 1459 1460 1462 1463 1464 1465 1466 1467 1468 1470 1471 1472 1473
1459 1457 1454 1452 1449 1447 1443 1440 1436 1431 1426 1419 1413 1407 1400 1391 1382 1375 1374 1377 1381 1384 1386 1389 1391 1394 1398 1401 1404 1407 1411 1413 1416 1419 1422 1424 1427 1428 1430 1432 1433 1434 1436 1438 1438 1439 1442 1443 1444 1445 1447 1450 1452 1452 1451 1451 1451 1452 1453 1454 1455 1456 1458 1459 1460 1461 1462 1463 1464 1466 1467 1468 1469 1471
1458 1456 1453 1451 1449 1446 1443 1440 1436 1432 1426 1419 1412 1407 1399 1389 1379 1372 1371 1374 1377 1380 1382 1385 1387 1389 1392 1395 1398 1401 1404 1407 1410 1413 1416 1419 1422 1423 1425 1428 1429 1430 1432 1433 1433 1435 1437 1439 1440 1442 1443 1445 1448 1448 1448 1448 1448 1449 1451 1452 1453 1454 1455 1456 1457 1458 1459 1460 1461 1463 1464 1465 1466 1468
1457 1455 1452 1450 1448 1446 1443 1439 1436 1432 1427 1420 1413 1406 1398 1389 1380 1373 1370 1372 1375 1377 1380 1382 1384 1385 1388 1391 1393 1395 1398 1402 1405 1407 1411 1414 1416 1419 1421 1423 1424 1426 1427 1428 1428 1431 1433 1435 1436 1438 1439 1441 1443 1444 1445 1446 1446 1446 1447 1449 1451 1452 1452 1454 1455 1455 1456 1457 1458 1460 1461 1462 1463 1465
1456 1454 1452 1449 1447 1445 1442 1439 1436 1433 1428 1422 1415 1407 1399 1393 1385 1377 1373 1373 1374 1375 1377 1380 1382 1383 1385 1387 1389 1391 1394 1397 1400 1403 1406 1409 1411 1414 1417 1419 1421 1422 1423 1424 1425 1427 1429 1431 1432 1434 1436 1437 1438 1440 1442 1443 1444 1444 1445 1447 1449 1450 1450 1452 1453 1453 1454 1455 1456 1457 1458 1459 1461 1462
1455 1453 1451 1449 1447 1445 1442 1439 1436 1433 1429 1424 1418 1411 1403 1397 1390 1384 1379 1377 1375 1375 1376 1378 1379 1380 1382 1385 1386 1389 1391 1394 1396 1399 1402 1405 1407 1410 1413 1415 1417 1419 1420 1422 1423 1424 1426 1428 1429 1430 1432 1433 1435 1437 1439 1441 1442 1443 1443 1444 1446 1447 1448 1450 1451 1451 1452 1453 1454 1455 1456 1457 1458 1460
1455 1453 1450 1448 1446 1444 1442 1439 1435 1433 1430 1426 1421 1414 1408 1401 1395 1391 1387 1384 1381 1379 1380 1379 1377 1378 1380 1382 1384 1386 1389 1391 1393 1395 1398 1401 1403 1406 1409 1411 1413 1415 1417 1418 1420 1421 1423 1425 1426 1427 1428 1430 1432 1434 1436 1438 1440 1441 1442 1443 1444 1445 1446 1447 1449 1450 1451 1452 1453 1453 1454 1455 1456 1458
1454 1452 1449 1447 1445 1443 1441 1439 1435 1433 1430 1427 1422 1417 1411 1405 1400 1397 1394 1392 1388 1385 1384 1383 1381 1380 1380 1380 1382 1383 1385 1388 1391 1393 1395 1398 1400 1403 1406 1408 1409 1411 1413 1415 1416 1418 1420 1422 1423 1425 1426 1428 1430 1431 1433 1436 1438 1440 1440 1442 1443 1443 1444 1445 1447 1448 1449 1451 1452 1452 1453 1454 1455 1456
1453 1451 1448 1446 1444 1442 1441 1439 1436 1433 1431 1428 1424 1420 1415 1410 1405 1401 1398 1395 1391 1389 1389 1389 1387 1384 1382 1382 1383 1383 1383 1386 1388 1391 1393 1396 1398 1401 1404 1405 1406 1408 1410 1411 1413 1415 1417 1419 1421 1422 1424 1426 1428 1429 1431 1434 1436 1437 1439 1440 1441 1442 1442 1444 1445 1447 1448 1450 1451 1451 1452 1453 1454 1455
1451 1449 1448 1446 1444 1442 1440 1438 1436 1433 1431 1428 1425 1422 1418 1415 1411 1407 1403 1399 1395 1393 1393 1392 1390 1387 1386 1386 1387 1386 1386 1386 1388 1391 1393 1394 1395 1398 1401 1402 1403 1405 1407 1409 1411 1412 1414 1416 1418 1420 1422 1424 1426 1427 1429 1431 1433 1434 1436 1438 1439 1440 1441 1442 1444 1445 1447 1449 1450 1450 1451 1452 1453 1454
1450 1449 1447 1445 1443 1441 1440 1438 1436 1434 1431 1428 1426 1424 1421 1418 1415 1412 1409 1406 1402 1399 1397 1396 1394 1393 1392 1392 1391 1391 1390 1389 1390 1392 1393 1394 1394 1396 1399 1399 1401 1403 1405 1407 1408 1410 1412 1414 1416 1418 1420 1422 1423 1425 1427 1429 1430 1432 1434 1436 1437 1438 1439 1441 1442 1443 1445 1448 1449 1450 1451 1452 1453 1454
1450 1448 1446 1444 1442 1441 1439 1437 1436 1434 1432 1429 1428 1425 1423 1421 1418 1416 1413 1410 1408 1405 1403 1402 1401 1399 1397 1397 1397 1396 1395 1394 1394 1394 1394 1395 1396 1397 1398 1399 1400 1402 1404 1405 1406 1408 1410 1412 1414 1416 1418 1419 1421 1422 1424 1426 1428 1430 1432 1433 1435 1436 1438 1439 1441 1442 1444 1446 1448 1450 1451 1452 1452 1453
1449 1447 1445 1444 1442 1441 1439 1437 1436 1435 1433 1431 1429 1427 1425 1423 1421 1419 1416 1414 1413 1412 1410 1409 1408 1405 1403 1402 1402 1401 1401 1400 1400 1400 1399 1400 1400 1400 1401 1402 1402 1403 1404 1404 1406 1408 1409 1411 1414 1415 1417 1419 1419 1420 1421 1423 1425 1427 1430 1431 1433 1434 1436 1437 1439 1441 1443 1445 1447 1449 1450 1451 1452 1453
1447 1446 1444 1443 1442 1441 1440 1438 1437 1435 1434 1432 1430 1429 1427 1425 1423 1422 1420 1418 1417 1417 1416 1415 1413 1411 1410 1408 1407 1407 1406 1405 1405 1405 1405 1405 1405 1405 1405 1406 1407 1407 1406 1406 1407 1409 1410 1412 1414 1416 1417 1419 1419 1418 1418 1421 1423 1425 1427 1429 1430 1432 1434 1435 1437 1439 1441 1443 1445 1447 1448 1450 1451 1452
1447 1445 1444 1443 1442 1441 1440 1439 1438 1436 1435 1433 1432 1431 1429 1428 1426 1425 1423 1421 1420 1419 1419 1418 1416 1415 1414 1414 1413 1412 1412 1411 1411 1411 1410 1410 1410 1410 1410 1410 1411 1411 1410 1409 1410 1411 1413 1414 1416 1417 1418 1419 1419 1418 1418 1420 1422 1424 1425 1427 1428 1430 1432 1433 1435 1438 1440 1442 1443 1445 1447 1448 1449 1450
1446 1445 1444 1444 1443 1442 1441 1440 1439 1437 1436 1435 1433 1432 1431 1430 1428 1427 1425 1423 1422 1421 1421 1420 1419 1418 1418 1418 1417 1417 1417 1417 1416 1416 1415 1415 1414 1414 1414 1414 1414 1415 1414 1413 1413 1415 1416 1416 1417 1418 1418 1419 1420 1420 1419 1421 1423 1424 1424 1426 1427 1429 1430 1432 1434 1436 1438 1440 1442 1443 1445 1446 1448 1449
1447 1446 1446 1445 1444 1443 1442 1441 1440 1439 1437 1436 1435 1433 1432 1431 1429 1428 1427 1425 1424 1423 1423 1422 1422 1421 1421 1420 1420 1420 1420 1420 1420 1419 1419 1418 1418 1418 1417 1417 1418 1418 1418 1417 1417 1417 1417 1417 1418 1419 1420 1421 1422 1422 1422 1423 1424 1425 1425 1426 1428 1429 1430 1432 1433 1435 1437 1439 1440 1442 1444 1445 1446 1448
1448 1447 1447 1446 1445 1444 1443 1442 1441 1440 1439 1438 1436 1435 1434 1432 1431 1430 1429 1427 1426 1425 1425 1424 1424 1423 1423 1422 1422 1421 1421 1421 1421 1421 1421 1421 1421 1421 1420 1420 1420 1420 1420 1420 1420 1419 1419 1419 1420 1420 1422 1422 1422 1423 1423 1425 1426 1427 1427 1428 1430 1431 1431 1432 1432 1434 1436 1438 1440 1441 1443 1444 1446 1447
1449 1448 1448 1447 1446 1445 1444 1444 1443 1442 1441 1440 1438 1437 1435 1434 1433 1432 1431 1429 1428 1427 1426 1426 1425 1425 1424 1424 1423 1423 1422 1422 1423 1423 1423 1423 1423 1423 1423 1422 1422 1422 1422 1422 1422 1421 1421 1422 1422 1423 1424 1424 1424 1425 1426 1427 1428 1428 1429 1430 1431 1432 1432 1432 1433 1434 1436 1437 1439 1441 1442 1444 1446 1447
1450 1450 1449 1448 1447 1447 1446 1445 1444 1443 1442 1441 1440 1438 1437 1436 1435 1434 1432 1431 1430 1429 1428 1428 1427 1427 1426 1425 1425 1424 1424 1424 1424 1424 1424 1424 1424 1424 1424 1424 1424 1424 1424 1424 1424 1424 1424 1424 1425 1425 1426 1426 1426 1427 1428 1429 1429 1430 1430 1431 1432 1432 1433 1433 1434 1435 1436 1438 1440 1441 1443 1444 1446 1447
1451 1451 1450 1449 1448 1448 1447 1446 1445 1444 1443 1442 1441 1439 1438 1437 1436 1435 1434 1433 1432 1431 1431 1430 1429 1428 1428 1427 1427 1426 1425 1425 1425 1424 1424 1425 1425 1425 1425 1425 1426 1426 1426 1425 1425 1425 1425 1426 1426 1426 1427 1427 1428 1429 1430 1430 1431 1431 1431 1432 1432 1432 1433 1434 1435 1436 1437 1439 1440 1442 1443 1444 1446 1447
1452 1451 1451 1450 1449 1448 1447 1446 1445 1444 1444 1443 1441 1440 1439 1438 1437 1436 1436 1435 1434 1433 1432 1431 1430 1429 1429 1428 1428 1427 1427 1426 1426 1425 1425 1425 1426 1426 1426 1426 1426 1426 1426 1426 1426 1426 1426 1426 1427 1427 1427 1428 1429 1430 1430 1431 1431 1431 1431 1432 1432 1433 1433 1435 1436 1438 1439 1440 1441 1442 1444 1445 1446 1447
Wind_Speed
26 29 30 33 36 37 37 38 39 38 37 36 36 38 40 40 40 38 35 33 32 33 35 32 29 26 25 26 27 25 26 29 30 30 28 28 28 28 28 26 25 26 25 25 27 28 28 29 29 29 29 29 29 29 30 30 31 31 31 31 31 31 31 32 32 32 32 32 33 33 32 32 31 30
25 27 29 32 34 35 37 39 39 40 41 40 39 39 39 40 43 43 40 38 36 34 34 34 31 26 23 22 22 21 22 23 26 26 26 28 28 28 28 26 25 26 25 25 26 28 28 29 30 30 31 31 30 30 29 29 29 29 29 30 29 29 29 30 30 31 32 32 32 33 33 32 32 32
26 28 30 31 32 33 35 36 37 39 41 40 39 39 40 40 44 46 43 41 41 35 31 31 29 24 20 19 19 20 20 19 20 22 24 26 27 26 26 25 25 26 26 26 27 29 30 31 32 32 32 31 30 29 28 28 28 28 28 28 28 28 28 28 29 30 31 32 31 31 32 32 31 31
29 29 30 32 33 33 34 34 35 37 38 38 38 39 39 37 40 43 41 41 44 42 37 35 31 23 18 18 19 21 23 21 19 19 22 24 26 26 24 24 25 26 25 26 28 29 30 31 31 30 30 29 29 28 28 28 28 27 27 26 26 25 26 26 27 28 29 30 30 31 31 31 31 31
32 31 31 32 33 34 35 35 35 35 36 37 36 37 38 37 38 40 39 39 43 44 42 42 38 29 20 18 19 21 24 25 22 20 21 23 24 24 23 24 25 24 24 26 27 27 28 27 27 27 28 28 28 28 28 27 26 25 25 25 25 25 25 25 26 27 27 28 29 30 31 31 30 31
33 33 33 33 32 33 34 36 36 34 34 35 35 35 35 35 36 38 37 37 39 38 38 38 39 36 29 26 26 24 23 24 23 21 22 23 23 22 22 23 23 21 22 24 25 26 26 26 26 26 27 27 27 26 25 25 25 25 25 25 25 24 25 25 25 26 27 27 28 29 29 30 30 30
33 33 34 32 31 32 33 35 35 34 33 34 34 34 32 33 35 34 33 34 33 32 32 34 35 35 33 31 32 29 25 26 26 24 24 24 23 23 22 23 22 21 21 23 25 25 26 26 25 25 25 25 25 24 25 25 25 25 25 24 24 24 23 24 25 26 27 27 28 29 29 30 30 31
31 32 34 31 30 31 33 33 34 35 35 34 34 34 33 35 36 33 31 34 33 31 33 33 34 35 32 29 30 26 23 26 27 25 25 26 26 25 23 23 24 23 21 21 23 24 24 24 23 22 22 22 22 23 23 23 23 24 24 24 24 23 23 23 24 25 26 27 28 29 30 30 31 31
28 29 32 32 31 30 31 32 33 35 37 35 34 33 32 34 37 37 36 37 36 35 36 35 33 34 31 28 29 28 25 27 27 26 27 26 27 27 25 24 24 24 22 21 22 24 23 23 21 20 20 19 20 20 20 21 22 22 24 24 25 24 24 23 24 24 25 26 27 28 29 30 31 31
26 27 29 31 31 29 29 31 32 34 35 34 35 35 33 33 36 39 38 37 36 35 36 36 34 34 33 31 33 32 30 30 29 28 28 27 27 29 26 24 24 24 24 22 22 24 25 23 21 20 19 20 20 20 19 19 20 21 22 24 25 25 25 24 24 24 24 25 25 26 27 28 30 30
25 27 28 29 30 28 28 30 30 32 32 32 34 35 33 32 35 39 37 36 37 36 35 35 34 33 32 33 34 32 31 31 30 29 30 30 30 30 27 26 24 23 26 25 24 26 26 25 23 21 21 22 22 21 20 19 20 20 21 23 24 25 25 25 25 25 24 24 25 25 26 27 29 30
27 30 30 30 29 27 27 27 26 28 28 27 30 33 34 35 37 39 38 36 36 36 35 35 34 33 33 32 32 30 28 30 31 30 31 31 30 28 28 28 25 23 25 27 27 28 27 25 24 23 23 24 24 23 22 21 21 21 21 23 24 25 25 25 25 25 24 24 24 25 26 27 28 29
32 33 31 30 29 28 28 24 21 24 25 26 29 33 34 36 38 39 38 37 37 37 36 34 32 32 33 33 31 29 29 32 32 30 31 31 28 26 26 27 25 24 25 26 27 29 28 27 26 25 25 25 25 25 24 23 22 22 23 23 24 25 25 25 25 25 24 24 24 24 25 26 27 27
34 34 32 31 31 31 30 25 19 20 23 27 31 33 33 35 38 39 38 38 39 38 36 35 32 32 34 34 32 32 33 33 31 30 31 30 28 27 28 28 26 25 25 27 29 29 28 27 27 26 26 26 25 25 25 25 23 23 23 24 24 25 25 25 25 25 25 24 24 24 24 25 25 25
32 34 33 32 33 33 33 29 23 20 21 23 27 31 32 33 35 37 39 39 38 37 37 35 35 36 37 35 35 34 33 33 32 32 32 31 29 28 29 30 28 27 25 26 28 29 29 27 25 25 27 28 27 27 27 27 25 24 24 24 25 25 26 26 26 26 26 25 23 23 23 23 23 22
29 33 34 33 34 35 34 31 28 26 22 20 22 27 32 33 32 35 39 40 38 37 36 35 35 37 36 35 36 34 32 31 31 31 30 30 31 29 28 31 32 28 27 27 29 29 27 24 24 25 27 27 28 29 30 29 27 26 25 24 25 26 26 26 26 26 25 24 23 22 22 22 21 20
26 31 33 33 34 36 36 34 33 33 28 24 22 23 29 34 36 36 38 41 41 38 37 36 38 39 36 36 36 35 33 31 29 30 30 28 30 31 29 33 34 29 26 28 29 29 25 22 24 27 27 27 27 29 31 30 28 28 26 25 25 25 25 26 26 24 22 21 21 21 21 21 20 19
24 27 30 33 35 37 37 37 37 37 34 31 29 26 25 30 37 39 40 43 44 43 41 39 40 41 38 35 35 35 35 33 29 29 28 25 27 30 29 32 33 30 28 28 27 27 25 21 21 22 23 25 28 29 31 30 29 28 26 25 25 24 24 25 24 22 20 20 20 21 21 20 20 19
21 24 28 33 38 38 36 37 39 39 37 34 34 34 30 27 33 39 42 43 44 47 48 44 43 43 38 33 33 35 34 33 32 31 27 24 27 29 26 28 30 30 30 30 28 28 26 21 19 18 19 23 26 28 30 30 29 27 25 25 24 23 23 23 22 20 20 20 20 20 20 19 19 19
20 21 25 31 36 36 34 35 39 40 38 35 35 38 38 30 28 35 41 44 43 45 47 47 47 45 38 31 31 33 33 31 30 29 27 26 29 29 26 27 30 31 32 31 29 28 26 22 20 18 16 19 23 24 25 28 28 25 24 24 23 22 22 21 20 21 21 21 20 19 18 18 19 19
18 19 21 26 32 34 33 34 38 39 39 38 35 37 39 35 28 30 36 40 43 45 45 46 46 45 41 37 35 35 34 32 28 25 26 27 27 28 29 29 30 30 30 30 30 29 27 23 21 19 16 17 22 22 21 24 26 23 22 23 22 22 22 21 21 21 22 21 20 19 18 18 18 19
18 19 21 22 26 30 32 34 36 38 39 39 37 37 38 37 31 27 29 34 40 44 43 43 43 44 43 43 42 39 36 35 34 30 29 29 27 26 27 28 28 28 29 29 29 30 27 23 21 20 17 17 22 23 19 21 23 20 20 22 21 21 21 21 21 22 22 22 21 19 19 19 19 19
20 21 22 21 21 26 30 33 36 39 40 39 39 38 37 35 32 26 25 29 35 39 39 40 40 41 43 44 45 43 39 38 38 35 32 31 30 29 28 26 27 30 31 30 29 29 26 22 21 21 18 16 19 21 18 19 21 19 18 20 20 20 20 20 21 22 22 22 22 21 20 19 19 18
21 22 23 23 23 26 28 30 35 41 41 40 41 39 37 36 32 23 23 27 34 37 36 37 38 39 40 42 44 46 45 44 43 39 34 32 32 33 32 29 28 30 29 27 29 31 26 21 20 21 20 16 15 16 18 20 20 19 19 20 20 20 21 21 21 22 22 22 22 22 21 21 20 18
22 22 23 24 24 26 27 27 32 39 41 41 42 39 35 35 30 18 22 26 32 38 37 34 35 36 37 39 41 43 46 48 47 43 39 36 34 34 34 32 31 31 29 26 28 29 26 21 19 19 20 19 15 14 17 19 19 19 19 19 20 20 21 22 23 22 22 22 23 23 23 23 22 20
21 22 24 24 24 26 26 24 26 34 41 42 42 40 36 36 33 14 16 23 25 33 38 36 34 34 35 37 38 40 44 46 45 44 42 39 37 37 36 33 33 33 30 27 27 27 24 21 20 19 20 20 17 15 16 16 17 18 18 17 18 19 20 21 22 22 21 21 22 23 23 24 24 23
21 21 22 23 23 24 24 22 21 28 37 41 42 42 39 38 39 26 2 18 21 26 32 34 34 35 35 34 35 38 40 40 40 42 42 38 37 37 36 35 36 35 29 23 23 25 23 21 21 21 21 21 19 17 16 14 14 17 18 18 18 19 20 19 20 21 21 21 21 21 22 23 23 23
19 20 21 22 21 21 22 20 18 22 32 39 42 43 40 37 39 39 24 5 11 20 26 30 33 35 35 35 36 37 38 39 40 41 39 35 35 36 35 35 35 34 29 21 19 22 24 23 23 24 23 23 22 20 17 15 15 16 17 17 19 20 20 19 18 20 20 19 18 19 20 21 22 22
17 18 20 21 19 19 20 19 16 18 25 33 39 41 40 38 38 39 38 31 19 9 6 13 24 31 32 33 33 34 35 38 40 39 36 35 35 34 34 34 34 34 33 29 24 23 24 24 25 25 25 24 23 20 19 18 17 16 16 16 19 21 21 19 16 17 17 16 16 17 18 18 19 20
16 15 17 18 16 16 18 18 16 16 19 26 33 36 37 38 39 36 34 35 34 30 26 18 8 17 23 25 27 28 30 31 32 34 34 34 35 35 35 35 36 35 34 32 29 25 24 24 25 24 24 22 21 21 21 19 17 16 15 14 16 18 20 19 16 14 14 15 14 14 15 16 17 18
14 14 15 15 13 12 15 17 15 13 16 21 27 31 33 35 38 37 34 33 33 32 32 30 23 13 7 13 19 22 25 27 27 29 31 32 34 35 34 33 34 34 32 31 30 29 27 26 25 23 22 21 19 20 22 19 16 15 15 16 16 15 16 17 16 13 13 14 13 13 14 14 15 15
13 12 12 13 12 11 13 16 14 11 14 17 21 26 30 32 34 37 37 38 38 35 31 29 29 27 21 13 7 11 18 21 21 23 28 31 33 32 30 29 29 30 29 29 28 28 28 27 24 21 20 20 20 21 23 22 18 16 15 16 16 14 13 16 15 13 14 14 13 13 13 11 11 12
12 11 11 12 12 11 12 14 14 11 12 15 17 20 24 27 30 33 35 37 39 39 35 32 31 30 29 25 19 12 10 12 12 14 19 23 25 26 25 24 24 24 26 27 26 26 27 26 23 21 21 21 21 22 23 24 21 18 15 16 17 14 12 14 15 14 15 14 10 10 11 10 9 9
11 10 11 12 12 10 10 12 13 12 12 14 15 16 19 21 24 27 29 31 34 36 36 35 33 30 28 27 26 22 17 14 13 11 11 12 15 19 21 21 21 21 23 24 23 24 25 24 22 22 22 22 23 23 23 24 25 22 18 19 20 16 13 13 14 15 15 14 10 8 9 9 10 10
9 9 9 12 12 9 8 10 12 12 13 14 14 14 15 16 18 21 24 26 28 30 32 33 32 31 28 26 26 26 25 24 22 18 14 11 12 13 15 16 17 17 18 19 18 18 19 20 21 22 21 20 22 24 23 24 27 25 22 22 23 19 15 14 14 14 15 14 12 9 8 9 10 11
7 7 8 9 10 9 7 8 10 11 11 13 15 14 14 14 15 16 18 20 21 22 24 26 28 29 29 27 26 25 26 26 25 25 23 20 18 17 17 16 15 14 14 14 13 12 12 11 12 15 17 18 21 24 24 25 28 26 22 22 23 21 18 16 15 14 15 15 13 12 10 9 8 10
5 5 6 7 9 10 9 9 10 11 11 13 14 15 16 16 17 16 15 16 17 16 16 19 23 24 24 25 25 24 23 23 24 24 23 21 20 19 19 18 18 18 18 17 16 13 12 11 9 9 10 10 12 16 17 18 23 25 23 22 22 21 18 16 14 13 13 13 13 12 12 11 10 10
3 4 6 8 9 11 11 12 12 12 13 13 14 15 16 16 17 17 16 17 17 14 11 13 18 19 19 20 21 21 21 21 21 22 21 20 20 19 17 18 19 20 20 20 18 16 14 12 10 9 8 5 5 9 9 7 11 17 19 19 20 18 15 13 11 10 10 11 11 11 11 12 13 12
6 7 8 10 11 12 13 14 14 14 15 14 15 16 16 17 17 17 17 18 18 17 15 14 15 16 14 15 17 18 18 18 18 18 18 18 19 19 18 18 19 19 19 19 17 15 13 12 12 11 9 6 6 8 7 6 7 10 10 9 10 11 11 11 10 10 9 9 9 10 10 11 11 11
9 8 9 10 13 14 15 15 15 15 15 15 15 16 17 18 18 18 18 18 18 18 18 18 16 13 11 11 13 14 15 15 15 15 15 15 16 16 16 16 16 16 17 18 17 16 14 12 11 12 11 9 9 10 9 8 9 10 10 9 8 7 8 9 8 8 8 8 8 8 7 7 7 7
10 10 10 11 12 14 16 16 17 17 16 16 16 16 17 18 18 18 18 17 17 17 18 18 18 16 13 13 12 12 13 12 12 12 13 13 12 12 12 12 13 13 14 16 17 17 17 15 12 9 8 8 8 9 9 10 9 9 9 9 7 6 6 6 6 5 5 6 7 7 6 4 4 5
14 14 15 15 15 15 15 16 16 17 17 16 17 17 18 19 19 18 18 17 17 17 17 17 18 18 18 17 15 13 12 11 9 8 9 10 9 9 8 8 8 9 10 11 12 13 14 15 14 12 9 7 6 6 7 7 7 6 6 6 6 6 7 7 6 5 4 3 5 7 7 6 6 6
16 17 17 17 16 16 15 15 15 16 16 16 17 17 18 18 19 20 20 20 19 18 17 16 17 17 17 16 15 13 11 9 7 6 5 5 4 4 4 3 3 4 5 6 6 6 8 11 13 13 12 10 8 7 7 7 6 4 4 4 3 4 5 6 6 6 6 6 7 8 9 9 8 7
13 14 15 16 16 15 14 14 14 15 15 16 17 17 17 17 17 18 18 19 19 19 18 17 17 16 16 15 15 13 10 9 7 6 5 5 3 1 2 2 3 3 4 4 4 5 6 7 8 9 10 9 8 8 7 7 6 4 3 3 2 2 3 4 4 5 6 6 6 7 8 8 8 8
11 12 14 15 15 15 15 15 14 14 14 15 16 17 17 16 16 16 16 16 16 16 16 16 16 16 16 16 15 14 12 10 8 6 5 4 4 4 3 2 2 3 3 3 4 4 5 5 6 6 6 6 5 5 4 4 4 4 3 2 2 3 3 4 4 4 4 5 5 4 4 4 4 5
Wind_Direction
282 277 274 272 270 267 265 266 267 266 266 267 266 265 265 259 253 253 256 257 253 251 251 248 243 238 236 243 251 252 250 249 249 248 246 248 250 251 254 254 251 250 248 245 243 243 243 243 244 246 248 251 253 254 254 255 257 258 260 261 262 263 263 263 262 261 260 260 260 260 260 259 259 259
289 284 281 277 274 271 267 265 265 266 267 266 264 264 264 258 251 249 252 256 255 252 252 250 245 239 233 236 246 251 251 249 248 248 246 248 249 251 255 254 248 246 245 245 245 245 245 247 249 251 252 253 254 254 253 254 256 258 260 261 263 264 264 263 263 261 260 259 258 258 259 259 259 258
297 291 287 282 277 275 272 267 265 266 265 265 263 262 262 258 251 248 248 252 254 252 249 247 248 246 235 228 233 243 249 249 249 248 244 244 246 247 251 251 248 246 245 246 248 249 250 252 252 251 250 251 251 251 252 254 256 258 259 261 262 262 263 263 263 262 260 259 258 258 259 259 258 257
303 296 289 284 280 277 275 270 266 264 263 263 259 258 259 254 250 248 246 248 253 253 248 247 250 250 244 239 237 241 249 250 250 249 242 239 240 241 243 246 246 243 243 246 249 250 250 249 248 247 246 247 248 250 253 255 257 258 258 259 260 262 263 263 263 262 261 259 259 259 259 258 257 257
310 301 292 286 281 277 275 273 269 264 261 260 257 255 256 253 248 249 247 246 251 255 252 250 248 245 244 245 241 244 251 251 250 249 243 238 237 237 239 241 242 239 240 245 247 246 244 242 241 242 243 246 248 251 253 254 256 257 258 259 262 263 263 263 262 261 260 260 259 259 259 258 257 257
314 307 298 290 283 278 274 271 271 265 258 257 257 254 253 250 246 245 245 244 249 254 252 249 248 246 244 245 246 247 248 250 251 246 241 238 234 232 234 237 236 232 233 241 244 242 240 239 239 241 244 247 249 251 253 254 255 257 258 260 261 263 263 262 262 261 261 260 260 259 259 258 258 258
316 311 305 295 286 280 275 272 269 265 259 256 256 252 249 247 243 240 239 239 242 247 246 245 247 246 244 247 250 249 247 250 252 247 242 240 233 227 226 228 229 225 224 233 240 241 240 239 239 241 243 245 248 250 252 253 255 256 257 258 260 262 263 263 262 261 260 260 260 259 259 258 258 257
320 314 309 301 290 281 277 274 267 263 263 259 256 253 249 247 244 237 235 239 240 241 242 244 246 246 244 246 247 245 244 247 248 246 245 243 235 227 223 223 224 223 222 229 239 242 241 238 237 237 240 243 247 250 252 253 255 256 257 258 259 262 263 263 263 262 260 260 259 258 258 257 257 256
321 316 311 305 298 286 278 275 266 262 263 260 256 254 250 247 246 241 240 244 243 242 244 247 247 246 244 243 242 240 240 244 245 244 244 243 238 231 226 224 225 225 224 226 236 243 242 238 235 235 238 242 245 248 252 255 257 259 259 259 260 261 262 262 262 262 262 260 259 258 257 256 256 255
323 319 316 309 304 294 283 279 271 263 263 263 260 256 249 245 246 243 241 244 244 243 247 248 247 248 245 241 240 241 242 243 245 245 245 244 238 233 230 230 229 228 227 226 232 241 241 237 235 235 238 240 243 248 252 257 261 263 264 262 260 259 260 260 261 261 262 261 259 259 258 256 256 255
331 328 328 322 314 304 297 292 280 265 262 264 262 259 252 245 244 242 240 243 244 243 245 246 245 244 242 238 240 242 243 244 244 244 243 241 235 230 229 232 231 228 228 229 233 240 242 239 236 236 237 240 243 248 253 261 267 269 269 266 261 258 258 259 261 261 261 261 260 258 257 257 256 255
341 340 339 335 328 322 318 310 287 267 262 264 266 265 259 251 246 243 240 242 243 243 244 243 243 242 238 234 237 239 240 242 242 239 238 240 237 232 231 233 232 228 228 229 232 237 239 239 238 237 238 241 244 247 253 263 270 273 274 270 263 258 258 259 261 261 261 260 259 258 257 257 257 256
348 347 344 342 341 343 341 328 296 272 265 263 265 268 265 256 248 243 242 242 243 242 241 240 240 240 236 232 231 231 231 236 240 238 237 238 236 234 234 233 230 229 230 230 231 231 232 235 239 240 240 242 244 246 254 264 272 277 277 273 266 260 258 260 261 261 260 259 258 257 258 259 259 258
351 351 349 346 346 347 346 338 317 291 277 267 261 261 263 260 251 245 243 243 241 238 237 237 236 236 236 233 230 228 230 235 239 238 237 236 236 238 239 236 231 230 231 231 230 230 231 233 236 238 240 243 244 248 256 264 272 279 279 274 267 261 258 260 262 263 261 259 257 257 259 260 260 259
355 358 356 353 351 350 346 341 333 317 299 284 270 258 255 258 256 249 243 239 238 238 237 238 237 236 237 235 231 230 232 235 239 240 239 237 237 238 237 237 235 230 228 230 232 233 233 231 233 236 240 245 248 252 259 266 273 279 280 274 266 260 259 261 263 263 262 259 256 256 258 258 257 255
359 1 0 359 0 0 356 349 340 331 320 306 289 268 256 253 252 249 244 239 238 238 238 238 238 237 236 234 232 231 231 234 237 240 238 237 237 235 236 241 240 232 229 233 236 236 232 227 230 238 243 248 252 257 261 267 274 280 279 273 264 259 260 261 262 263 259 256 254 254 255 254 252 248
359 359 360 1 3 4 2 357 349 341 333 326 317 292 268 256 248 245 244 243 241 239 237 238 239 238 235 233 233 233 233 234 234 233 231 230 234 237 242 246 242 233 231 232 231 231 228 224 232 241 247 253 258 262 265 268 273 277 276 269 262 259 259 259 260 260 256 252 252 253 252 250 247 243
358 357 359 2 1 359 357 357 355 349 340 336 334 322 295 269 254 245 242 242 242 240 237 237 240 238 235 234 236 237 238 235 229 226 225 226 236 243 249 252 244 234 232 231 227 227 226 226 234 240 247 257 263 267 269 269 271 273 270 264 259 257 258 258 258 256 252 250 251 251 250 248 245 241
356 357 360 0 358 353 351 353 355 352 344 339 339 336 322 290 262 249 243 240 240 240 238 235 236 236 234 235 238 238 237 232 225 224 226 231 240 245 249 251 243 233 231 229 225 226 226 228 234 238 244 258 266 270 270 270 271 270 264 259 256 256 256 256 255 252 248 249 249 248 247 244 241 238
349 354 357 357 357 353 348 351 355 351 344 342 342 339 332 312 275 251 243 239 237 239 239 236 234 233 232 234 236 235 233 230 226 228 232 234 239 242 242 241 237 233 232 226 219 221 227 229 230 232 237 251 261 266 269 271 271 266 258 255 253 253 253 252 251 248 245 245 247 245 242 238 236 235
342 345 348 353 359 357 348 348 353 350 345 345 344 338 334 325 296 258 242 238 236 237 239 240 238 235 232 232 234 235 234 231 227 227 230 230 233 237 237 236 235 232 229 221 217 222 229 226 222 226 232 242 253 259 263 268 270 262 253 252 251 250 250 249 246 245 243 243 245 242 238 236 235 235
334 336 337 343 354 355 346 345 353 354 348 347 347 340 334 329 311 273 244 236 234 235 239 241 241 238 235 233 234 235 233 233 231 229 228 227 227 230 234 236 236 233 227 222 218 221 225 221 219 225 229 236 251 257 258 261 266 262 252 248 247 246 246 244 242 241 241 242 242 240 238 236 235 236
327 332 335 336 343 348 344 345 355 359 352 349 351 344 335 333 322 288 250 234 231 231 235 238 237 236 233 231 233 232 230 231 232 231 230 230 229 230 234 236 235 233 231 227 219 217 219 216 218 225 225 228 245 252 249 250 258 259 251 245 244 243 242 240 239 240 241 240 240 238 236 236 235 235
324 327 331 334 338 343 343 347 357 0 354 353 357 349 339 340 333 296 248 230 227 228 232 235 234 234 232 230 231 231 229 231 232 232 231 231 231 233 234 233 232 231 231 227 220 219 221 217 216 222 225 226 234 236 237 244 252 253 247 243 242 241 237 235 236 238 239 239 238 237 236 235 234 233
325 327 331 335 338 342 345 350 359 1 356 357 2 356 346 351 348 301 240 223 222 224 230 235 234 233 232 229 229 229 229 231 232 231 230 228 230 232 231 231 233 232 232 231 225 222 223 221 215 214 220 225 226 224 232 243 250 251 246 241 239 237 233 232 235 238 239 237 237 236 235 234 233 231
326 327 332 336 339 343 348 351 359 4 1 1 5 3 357 5 12 350 236 220 218 222 227 230 230 231 230 227 226 226 227 230 232 233 232 229 228 230 230 230 232 231 231 231 228 224 224 221 213 210 216 221 217 217 229 241 248 249 242 233 232 235 234 232 235 237 236 235 235 235 234 233 233 231
330 330 334 337 339 344 351 352 355 5 7 5 7 8 6 12 23 27 264 216 220 227 229 226 225 229 230 228 227 226 225 225 226 228 229 227 225 228 228 226 228 230 231 227 220 220 221 221 216 214 216 217 212 211 218 228 239 246 238 224 223 233 237 236 235 235 234 234 232 230 230 229 229 230
332 333 334 335 336 341 350 353 354 7 14 13 11 11 12 16 25 34 44 81 210 222 226 225 227 232 234 232 233 232 227 223 222 224 224 224 224 225 225 224 226 230 231 224 214 215 220 223 224 222 221 221 218 213 211 217 231 244 240 220 214 226 236 234 231 234 234 232 228 225 223 223 223 224
332 333 331 330 330 336 346 353 359 9 17 19 18 16 17 22 27 34 41 49 59 87 155 205 216 225 231 233 234 233 228 224 225 225 223 221 222 221 221 224 227 227 226 224 222 222 224 225 226 227 226 224 222 218 214 214 221 233 234 216 207 219 230 228 227 232 231 225 221 219 218 218 219 220
333 330 328 329 328 334 346 354 3 12 14 19 24 23 22 27 32 34 39 45 50 54 53 58 126 194 213 221 223 226 227 226 226 223 218 215 215 215 216 221 226 225 224 225 225 224 224 224 224 225 224 222 223 224 221 217 216 222 223 211 204 214 223 219 216 224 223 215 212 214 213 212 211 212
334 329 331 338 335 335 349 357 4 14 16 20 28 30 29 31 35 38 41 45 49 53 51 49 55 76 144 186 195 203 212 216 217 216 213 211 211 212 214 219 225 226 222 222 224 223 221 220 221 223 223 221 223 224 219 214 211 210 208 203 201 209 217 211 206 212 215 209 204 206 207 206 202 198
335 336 343 350 343 336 349 1 6 14 20 24 29 33 33 34 36 39 42 44 46 48 51 53 53 51 54 68 115 167 186 195 198 200 202 205 207 210 213 217 223 224 219 216 218 219 218 217 217 220 222 222 221 219 215 210 204 200 203 204 201 200 204 204 200 202 206 204 202 204 205 206 203 196
337 346 352 352 347 339 346 2 12 17 20 25 31 33 34 35 38 40 42 43 45 45 45 48 52 51 50 50 52 71 125 151 161 178 192 197 199 203 205 203 204 208 209 209 209 211 213 214 215 219 224 223 219 217 214 212 206 198 196 200 197 187 183 192 198 201 202 202 200 199 203 209 213 212
338 346 348 346 348 348 349 1 13 16 13 21 32 37 36 36 39 44 45 44 46 47 44 43 47 49 49 51 52 58 73 93 115 146 178 192 193 197 200 195 189 190 198 202 203 205 210 212 214 218 222 221 219 218 215 213 212 208 203 198 194 185 175 182 197 203 202 200 198 196 204 215 220 222
324 326 335 344 352 356 359 8 18 20 18 21 27 34 37 34 34 44 51 50 48 49 48 46 46 46 46 48 54 60 66 71 79 90 104 126 148 166 177 179 179 184 192 196 196 199 206 211 217 221 221 217 216 216 213 210 210 212 210 204 199 198 196 196 201 204 202 202 205 204 208 219 227 230
316 324 336 351 0 6 14 24 30 31 30 28 25 27 32 29 21 28 46 52 49 50 54 54 52 49 49 49 52 59 65 67 66 67 70 80 93 103 109 113 118 127 141 150 155 161 169 180 200 213 214 209 206 203 201 204 206 206 206 204 202 204 206 203 201 201 202 207 215 216 213 216 227 234
321 346 1 11 21 28 31 38 43 42 39 36 31 27 28 27 22 23 35 46 46 45 53 63 64 59 56 56 56 55 56 59 60 60 59 62 71 81 83 81 80 84 92 99 104 110 119 128 141 165 182 189 181 170 171 189 200 201 202 202 201 203 205 202 197 198 204 213 222 225 220 214 214 220
354 26 35 39 45 49 46 45 47 47 44 42 39 36 33 32 32 34 36 42 47 45 49 70 77 71 64 65 68 66 62 61 63 64 62 62 65 70 73 71 68 67 70 76 81 86 96 109 119 134 154 162 135 124 125 147 181 190 196 199 197 198 201 202 199 202 209 217 222 222 221 217 217 222
51 50 49 46 49 53 52 49 47 46 45 44 42 42 40 37 37 39 39 40 44 45 45 58 73 75 73 74 75 74 72 71 70 68 65 64 64 67 70 70 64 58 57 60 63 67 77 87 91 96 109 118 113 110 108 110 132 149 159 168 175 180 183 185 189 193 199 206 211 212 215 217 220 227
62 56 53 50 50 51 50 48 45 43 43 43 41 41 41 39 38 40 42 43 44 45 45 47 55 63 71 77 82 85 81 78 78 78 75 70 66 66 67 64 57 53 55 56 56 57 59 63 68 73 78 85 91 97 105 114 122 123 119 117 125 141 152 160 167 171 176 187 192 193 199 208 215 221
67 64 61 58 55 51 47 44 43 40 37 37 38 38 38 38 37 38 40 43 46 48 48 47 49 54 58 61 72 87 92 89 87 86 84 82 77 70 66 60 54 55 58 59 59 59 58 55 56 60 64 69 79 88 96 102 104 102 100 101 103 106 112 121 127 133 154 178 173 160 158 169 174 172
69 67 64 60 56 51 44 40 38 36 33 32 33 34 36 36 35 34 34 35 39 45 48 47 45 47 50 52 57 69 84 95 100 96 94 97 96 89 84 77 66 62 61 58 58 64 64 59 57 58 58 56 60 68 74 79 83 81 77 75 74 77 86 96 104 107 116 143 148 142 142 145 148 148
65 63 60 56 53 49 45 40 37 36 36 34 31 31 32 30 27 25 25 24 26 33 41 46 45 43 45 47 49 54 67 83 93 96 96 99 108 120 127 122 109 107 103 87 76 81 81 72 65 64 60 54 52 58 61 61 65 70 68 59 50 61 80 93 104 113 123 132 135 139 142 142 145 154
59 55 48 43 40 38 37 38 38 37 37 37 36 36 35 32 27 23 21 18 17 20 27 34 39 40 41 41 40 40 47 57 64 73 79 73 62 80 179 197 198 182 164 149 141 135 125 112 98 86 76 66 59 56 57 57 60 66 75 84 98 110 110 114 119 124 132 141 144 149 153 153 154 168
44 36 31 29 30 29 29 30 32 32 30 30 30 31 32 33 32 30 28 24 20 20 22 27 30 32 33 35 35 32 30 31 33 40 60 71 60 37 8 320 228 210 215 209 191 172 156 151 147 134 121 110 96 79 70 68 67 65 67 83 115 132 139 156 173 172 160 157 157 156 160 162 155 158